Temperature
24 24 23 22 21 20 20 20 20 20 20 19 19 19 19 19 19 19 19 19 19 19 19 19 19 19 19 19 19 19 19 19 19 19 19 20 20 20 20 19 19 19 19
24 24 23 22 21 21 20 20 20 20 20 19 19 19 19 20 19 20 20 19 19 19 19 19 19 19 19 19 19 19 19 19 19 19 19 19 20 20 20 20 20 19 19
25 24 23 23 22 21 20 20 20 20 20 19 19 19 19 19 20 20 19 19 19 19 19 19 19 19 19 19 19 19 19 19 19 19 19 19 19 20 20 20 20 20 19
26 24 24 23 22 21 21 20 20 20 20 19 19 19 19 19 20 20 20 19 19 19 19 19 19 19 19 19 19 19 19 19 19 19 19 19 19 19 19 20 20 20 19
27 25 24 23 23 22 21 21 20 20 20 20 20 19 19 19 19 19 19 19 19 19 19 19 19 19 19 19 19 19 19 19 19 19 19 19 19 19 19 19 20 20 20
27 26 25 24 23 23 22 21 21 20 20 20 20 19 19 19 19 19 19 19 19 19 19 19 19 19 19 19 19 19 19 19 19 19 19 19 19 19 19 19 19 19 20
28 27 25 24 24 23 22 22 21 20 20 20 20 20 19 19 19 19 19 19 19 19 19 19 19 19 19 19 19 19 19 18 19 19 19 19 19 19 19 19 19 19 19
28 27 26 25 24 23 23 22 21 20 20 20 20 20 19 19 19 19 19 19 19 19 20 19 19 19 19 18 18 19 19 18 18 18 18 19 19 19 19 19 19 19 19
28 27 26 25 24 23 23 22 21 21 20 20 20 20 19 19 19 19 19 19 19 19 19 19 19 19 19 19 18 18 18 18 18 18 18 18 18 19 19 19 19 18 18
28 27 26 25 24 24 23 22 22 21 20 20 20 19 19 19 19 19 19 19 19 19 19 19 19 19 19 18 18 18 18 18 18 18 18 18 18 18 18 18 18 18 18
28 26 26 25 24 24 23 22 22 21 20 20 19 19 19 19 19 19 19 19 19 19 19 19 19 19 18 18 18 18 18 18 18 18 18 18 18 18 18 18 18 18 18
27 26 25 25 24 24 23 22 21 21 20 20 20 19 19 19 19 19 19 19 19 19 19 19 19 18 18 18 18 18 18 18 18 18 18 18 18 18 18 18 18 18 18
26 25 25 24 24 23 23 22 22 21 21 20 20 19 19 19 19 19 19 19 19 19 18 18 18 18 18 18 18 18 18 18 18 18 18 18 17 17 17 17 17 17 17
25 25 24 23 23 23 22 22 22 21 21 20 20 19 19 19 19 19 19 19 19 18 18 18 18 18 18 18 18 18 18 18 18 17 17 17 17 17 17 17 17 17 17
25 24 23 22 22 22 22 22 21 21 21 20 20 19 19 19 19 18 18 18 18 18 18 18 18 18 18 18 18 18 18 17 17 17 17 17 17 17 17 16 17 17 16
24 23 23 22 22 21 21 21 21 21 20 20 20 19 19 19 18 18 18 18 18 18 18 18 18 18 17 18 17 17 17 17 17 17 17 17 17 17 17 16 16 16 16
23 23 22 22 21 21 20 20 20 20 20 19 19 19 18 18 18 18 18 18 18 18 18 18 18 18 18 18 18 17 17 17 17 17 17 17 16 17 16 16 16 16 16
22 22 22 21 21 20 20 20 19 19 19 19 19 18 18 18 18 17 18 18 18 17 17 17 17 17 17 17 17 17 17 17 17 16 16 16 16 16 16 16 16 16 16
22 21 21 21 20 20 19 19 19 19 19 18 18 18 18 18 17 17 17 17 17 17 17 17 17 17 17 17 17 17 17 17 17 16 16 16 16 16 16 16 15 15 15
21 21 20 20 19 19 19 19 18 18 18 18 18 18 17 17 17 17 17 17 17 17 17 17 17 17 17 17 17 17 16 16 16 16 16 16 16 16 15 15 15 15 15
20 20 19 19 19 18 18 18 18 17 17 17 17 17 17 17 17 17 17 17 16 16 16 16 16 16 16 16 16 16 16 16 16 15 15 15 15 15 15 15 15 15 15
19 19 19 18 18 18 17 17 17 17 17 17 17 17 16 16 16 16 16 16 16 16 16 16 16 16 16 16 16 16 16 15 15 15 15 15 15 15 15 15 15 15 14
19 18 18 18 17 17 17 17 16 16 16 16 16 16 16 16 16 16 16 16 16 15 15 15 15 15 15 15 15 16 15 15 15 14 14 14 14 14 14 14 14 14 14
18 18 17 17 17 17 16 16 16 16 16 16 16 16 16 16 16 15 15 15 15 15 15 15 15 15 15 15 15 15 15 14 14 14 14 14 14 14 14 14 14 13 13
17 17 17 16 16 16 16 16 16 15 15 15 15 15 15 15 15 15 15 15 15 15 15 15 15 15 15 15 15 14 14 14 14 14 14 13 13 13 13 13 13 13 13
17 16 16 16 16 15 15 15 15 15 15 14 14 15 15 15 15 15 15 15 15 15 15 15 15 14 14 14 14 14 14 14 14 13 13 13 13 12 12 12 12 12 12
Wind_Speed
13 14 13 13 13 12 11 10 9 8 6 5 5 4 4 4 4 4 6 5 5 5 4 2 2 2 2 2 1 1 2 3 2 2 2 3 4 4 3 3 3 4 5
14 14 14 13 13 12 11 10 9 9 8 6 5 4 4 4 4 3 5 6 5 4 4 3 3 3 2 2 2 2 2 3 2 2 1 2 2 2 4 3 4 3 3
16 15 15 14 14 13 12 11 10 9 9 7 5 4 4 3 3 4 4 4 4 4 4 2 2 2 2 2 3 3 3 3 3 2 1 1 1 2 2 3 3 3 2
16 16 15 14 14 14 13 11 10 9 9 8 6 7 6 5 5 4 4 5 5 4 5 4 3 2 3 2 4 2 2 3 3 2 2 2 1 2 2 2 2 3 4
16 16 16 15 14 14 13 12 10 9 9 8 7 6 6 5 4 4 4 5 5 5 5 4 3 2 3 2 2 1 3 2 3 3 2 3 3 4 3 3 2 3 3
15 15 15 14 12 12 12 12 10 9 9 9 8 8 7 6 5 4 5 5 4 5 5 5 4 3 3 3 3 2 4 3 3 4 4 3 2 3 3 3 3 3 3
11 13 14 14 13 13 12 12 12 10 9 9 8 8 8 7 7 6 5 5 4 5 6 6 5 3 3 4 3 3 4 4 4 4 4 4 4 3 3 2 3 3 3
9 10 11 12 12 13 12 12 12 11 10 10 8 7 7 7 6 7 6 5 4 4 4 5 5 5 4 4 3 3 4 4 4 6 5 4 5 4 3 2 2 3 3
8 10 11 10 10 9 9 11 11 11 11 10 9 7 7 7 7 6 7 6 5 5 4 5 5 5 4 4 3 3 4 3 3 4 4 4 4 4 3 3 2 3 3
6 6 8 8 9 9 9 9 10 10 9 9 9 9 8 7 7 7 6 5 5 4 3 4 5 5 5 5 4 4 4 4 4 4 4 3 4 3 3 3 3 3 3
6 5 5 7 7 8 9 8 9 9 9 9 8 7 7 7 7 6 6 6 5 4 4 4 5 5 5 5 4 5 5 5 5 5 5 4 4 3 3 3 3 3 2
5 4 4 5 5 6 7 8 8 9 9 8 7 7 6 7 7 7 7 6 6 6 6 6 5 6 6 5 6 7 6 5 5 5 5 4 4 4 4 3 4 3 3
4 4 4 3 2 2 3 6 8 9 9 8 7 6 6 6 7 7 6 7 7 7 7 7 7 7 6 6 6 7 6 6 5 5 5 4 4 4 3 3 4 3 4
3 3 3 2 2 2 2 0 3 5 6 7 7 6 6 6 6 6 6 7 7 7 8 8 7 7 7 6 6 6 6 6 5 5 5 4 4 4 4 4 4 4 3
3 3 3 2 2 2 1 1 0 2 2 4 6 6 5 5 5 5 6 6 7 8 7 7 7 7 7 7 7 6 7 6 5 5 4 4 4 4 3 3 2 2 2
3 3 3 3 2 2 1 1 1 2 2 2 3 4 4 4 4 4 4 5 5 6 6 7 7 7 8 7 9 7 6 5 5 4 4 4 4 4 4 4 3 2 3
2 2 3 3 2 1 1 1 0 1 3 2 2 2 3 3 3 4 3 3 4 4 5 6 6 7 7 8 7 8 6 6 5 5 4 5 4 3 3 3 4 4 5
2 3 2 2 2 2 1 1 0 1 2 2 2 2 3 3 3 3 3 3 3 3 4 5 5 5 7 9 8 7 7 6 6 6 6 5 4 4 2 2 2 3 2
3 3 3 3 2 2 1 1 1 1 2 2 2 2 2 2 2 3 4 4 3 3 4 5 6 6 6 8 8 7 6 6 6 7 6 5 4 4 3 3 3 3 2
5 4 4 4 3 3 3 2 2 2 2 2 2 2 1 2 3 4 3 3 3 4 4 4 5 6 5 7 8 8 6 6 5 5 5 5 5 6 5 4 4 4 3
4 4 4 4 3 3 3 3 3 3 3 2 2 2 2 3 5 4 3 3 4 4 4 4 5 5 5 6 8 8 5 5 5 4 4 4 6 6 6 5 4 5 4
3 3 3 3 3 3 3 4 4 3 3 3 3 3 3 5 5 3 3 4 4 5 5 5 5 4 4 5 7 9 8 6 5 4 3 2 5 5 5 5 5 5 4
3 3 3 3 3 3 3 4 4 3 4 4 4 4 5 5 4 4 5 5 5 5 5 4 5 3 2 3 5 7 7 7 4 3 2 3 5 4 4 6 7 5 5
3 3 3 4 4 4 5 5 5 3 4 5 4 4 5 6 5 5 5 5 5 5 4 4 3 2 1 2 2 3 3 4 3 3 2 4 5 5 4 4 4 5 5
3 3 3 3 4 4 5 6 5 4 5 5 5 6 6 6 5 5 5 5 4 4 4 4 3 3 3 2 3 2 2 2 3 2 1 2 2 3 3 3 3 2 1
3 3 4 5 5 5 5 6 6 5 6 6 6 7 7 5 5 5 4 4 5 5 6 5 4 2 2 4 4 3 4 5 6 4 3 4 4 4 3 3 2 2 2
Wind_Direction
174 171 175 168 164 163 165 165 172 166 169 173 180 186 193 202 211 190 169 179 203 207 225 255 237 255 246 251 261 272 272 265 259 279 284 251 241 225 205 219 221 216 209
173 173 176 175 172 170 170 172 179 175 179 183 188 194 194 204 205 196 161 187 195 208 220 212 233 228 219 226 256 244 269 275 263 255 284 289 277 267 228 214 217 213 208
175 180 181 181 179 178 179 181 184 181 186 187 185 200 190 213 217 184 173 188 200 211 243 212 243 240 216 201 231 235 245 266 277 259 239 272 285 292 258 243 224 213 225
177 181 182 184 186 182 182 182 182 182 183 191 196 199 198 202 215 196 183 184 200 220 223 221 231 243 257 193 234 186 246 257 275 270 236 232 220 258 287 272 248 224 221
177 181 183 184 188 185 183 179 176 180 181 192 200 206 214 209 211 201 187 192 194 212 222 214 220 224 253 224 246 221 249 258 272 286 272 249 235 241 244 271 276 260 231
174 176 177 178 184 185 182 175 171 178 185 194 201 205 216 219 220 214 195 202 205 210 213 210 207 216 237 235 232 239 247 252 274 291 292 278 258 256 246 258 269 268 262
169 169 173 176 184 187 184 176 171 178 186 194 205 208 218 220 219 226 216 218 225 213 208 207 186 202 220 231 231 235 247 247 259 267 275 281 274 270 266 268 272 277 273
155 163 169 175 184 187 184 177 172 178 186 194 200 204 208 215 219 220 227 218 228 232 207 185 181 198 221 235 222 242 243 235 247 263 265 278 281 280 274 262 277 295 293
149 158 159 169 178 185 183 180 170 176 186 194 193 198 203 213 219 214 216 229 229 225 205 189 191 199 214 234 239 239 255 243 239 263 265 259 281 281 285 279 261 258 277
139 143 150 161 172 179 182 177 170 177 184 190 196 199 201 209 217 224 220 219 228 234 210 202 199 204 216 224 232 248 244 245 248 249 264 265 276 293 290 288 286 264 259
129 142 153 156 157 164 176 183 176 176 184 193 198 202 196 203 208 218 223 224 228 227 223 216 217 214 217 221 229 247 247 239 247 256 252 250 256 274 290 291 293 283 276
110 134 148 138 152 161 168 176 184 185 188 190 194 201 200 203 210 215 219 221 223 224 224 220 222 225 220 216 225 240 247 237 239 248 260 266 265 255 271 286 286 288 276
94 104 92 108 137 153 167 178 187 192 191 188 192 198 206 212 218 220 215 219 221 224 226 220 222 227 226 219 222 230 241 243 241 241 244 250 263 267 265 267 273 280 283
92 105 113 108 82 72 74 121 195 184 189 182 190 194 205 217 225 229 223 223 224 225 230 228 225 224 221 225 228 228 231 241 244 244 243 241 242 246 251 254 253 264 281
92 79 88 91 85 73 57 27 301 155 180 177 190 198 203 213 223 229 238 232 226 231 230 231 231 228 224 228 224 226 228 231 240 245 244 241 231 229 235 257 259 269 272
77 63 52 64 70 74 71 53 349 122 150 196 196 189 196 205 222 232 242 246 238 237 232 229 229 230 235 226 213 213 234 233 232 237 237 238 218 206 202 218 235 240 254
37 54 49 45 50 60 54 43 284 156 155 172 183 191 205 212 222 232 233 241 248 245 240 235 229 227 226 227 220 216 224 231 228 227 225 245 234 203 211 214 215 231 246
55 23 28 35 30 31 55 16 260 188 170 188 198 199 212 230 238 237 249 246 246 252 248 244 237 232 228 218 219 218 226 233 229 224 220 220 220 233 215 234 239 234 251
46 27 3 359 13 11 8 305 284 247 212 218 224 228 216 221 232 236 251 251 241 245 251 245 242 236 223 212 209 207 230 231 230 227 226 217 198 185 196 226 247 249 251
32 18 4 6 14 2 347 321 293 286 256 242 235 232 218 224 234 238 246 251 254 250 258 259 247 241 228 204 203 205 233 236 233 227 220 219 201 187 195 217 241 246 253
28 22 12 7 7 357 342 319 307 296 298 280 265 252 247 248 241 236 237 245 247 255 257 261 252 242 230 202 201 203 225 240 238 234 227 213 176 184 200 217 234 236 245
15 6 6 4 5 352 331 315 303 305 304 294 280 270 260 262 261 247 244 246 247 250 249 250 251 238 217 202 203 205 223 242 244 245 229 193 183 194 212 224 225 230 246
354 347 347 349 348 346 326 303 302 303 297 288 284 280 272 261 261 255 248 247 246 249 251 246 248 245 219 196 195 206 221 234 237 254 223 197 202 214 230 226 225 225 235
335 332 329 323 330 334 328 313 302 286 282 283 283 272 264 261 253 244 247 244 243 244 251 257 260 261 232 185 189 211 215 219 232 242 224 211 219 233 232 226 226 228 238
308 307 304 305 306 314 313 309 311 306 293 283 278 274 268 262 255 247 247 248 256 251 243 255 257 251 245 194 161 189 209 202 204 195 200 212 217 223 218 217 222 226 241
313 307 299 295 298 304 305 310 312 304 292 282 279 279 276 270 265 252 246 230 231 226 220 230 240 240 182 160 161 180 201 194 180 176 210 218 219 216 210 210 219 235 237
Height
1521 1524 1527 1530 1532 1534 1536 1539 1541 1544 1546 1548 1550 1552 1554 1556 1558 1559 1560 1561 1561 1562 1563 1563 1564 1564 1564 1565 1565 1565 1564 1564 1564 1564 1563 1563 1563 1563 1563 1563 1563 1563 1563
1518 1522 1525 1528 1530 1532 1534 1537 1539 1542 1544 1547 1549 1551 1553 1555 1557 1558 1558 1559 1560 1561 1562 1561 1562 1562 1563 1563 1563 1563 1563 1562 1562 1562 1562 1561 1562 1561 1561 1562 1562 1562 1562
1514 1519 1522 1525 1528 1530 1531 1534 1537 1540 1542 1545 1547 1550 1552 1553 1555 1556 1557 1558 1558 1559 1560 1560 1560 1561 1561 1561 1561 1561 1561 1561 1562 1561 1561 1560 1560 1560 1560 1560 1560 1560 1560
1510 1515 1519 1522 1525 1527 1529 1532 1534 1537 1540 1543 1545 1547 1549 1551 1552 1554 1555 1555 1556 1557 1558 1558 1558 1559 1560 1560 1560 1560 1560 1560 1560 1560 1560 1560 1559 1559 1558 1559 1558 1558 1558
1506 1511 1515 1518 1522 1525 1528 1530 1532 1534 1537 1540 1542 1545 1547 1549 1551 1552 1553 1553 1554 1555 1556 1556 1556 1557 1557 1558 1558 1558 1558 1558 1558 1558 1558 1558 1558 1558 1558 1557 1556 1556 1556
1501 1507 1511 1516 1520 1523 1525 1527 1529 1532 1534 1537 1539 1542 1544 1546 1548 1549 1550 1551 1552 1552 1553 1554 1554 1554 1555 1556 1556 1556 1556 1556 1556 1556 1556 1556 1556 1556 1556 1555 1555 1554 1554
1499 1504 1509 1513 1517 1520 1522 1525 1526 1529 1531 1534 1536 1538 1540 1542 1544 1546 1547 1548 1549 1550 1550 1551 1551 1552 1552 1553 1554 1554 1554 1554 1554 1554 1554 1555 1554 1554 1554 1554 1553 1552 1552
1498 1502 1506 1510 1514 1517 1520 1522 1524 1526 1529 1531 1532 1534 1536 1538 1540 1542 1544 1545 1546 1547 1548 1549 1549 1549 1550 1551 1551 1552 1552 1552 1552 1552 1553 1552 1552 1552 1552 1552 1552 1550 1550
1497 1501 1505 1509 1512 1515 1517 1519 1521 1523 1526 1528 1529 1531 1533 1534 1536 1539 1541 1542 1543 1545 1546 1546 1547 1547 1548 1548 1549 1549 1549 1550 1549 1550 1550 1550 1550 1550 1550 1550 1549 1550 1548
1497 1500 1503 1506 1509 1511 1514 1518 1519 1521 1523 1525 1526 1528 1529 1531 1533 1535 1537 1538 1540 1541 1543 1543 1543 1544 1545 1545 1546 1546 1547 1547 1547 1547 1547 1547 1547 1546 1546 1547 1547 1547 1546
1495 1499 1502 1505 1507 1509 1513 1515 1518 1519 1521 1522 1524 1525 1527 1528 1530 1531 1532 1534 1536 1537 1538 1539 1540 1541 1541 1542 1542 1543 1543 1544 1544 1544 1544 1544 1544 1543 1543 1543 1543 1543 1543
1496 1499 1502 1504 1507 1509 1510 1513 1514 1516 1517 1519 1521 1522 1524 1525 1526 1527 1529 1531 1532 1533 1534 1535 1536 1537 1537 1538 1539 1539 1540 1540 1540 1540 1540 1540 1541 1540 1540 1540 1540 1540 1540
1497 1500 1502 1504 1505 1507 1508 1510 1511 1513 1514 1516 1517 1519 1521 1522 1523 1524 1525 1527 1528 1529 1530 1531 1532 1533 1533 1534 1534 1535 1536 1536 1537 1537 1537 1537 1537 1537 1537 1537 1536 1536 1536
1498 1500 1502 1503 1504 1505 1506 1508 1509 1510 1511 1512 1514 1516 1517 1518 1519 1521 1522 1523 1524 1525 1526 1527 1527 1528 1529 1529 1530 1531 1532 1532 1532 1533 1533 1533 1533 1533 1533 1533 1533 1533 1532
1498 1500 1501 1502 1503 1504 1505 1506 1507 1508 1509 1510 1511 1512 1514 1515 1516 1517 1518 1518 1519 1520 1521 1522 1523 1524 1524 1525 1526 1527 1527 1528 1528 1529 1529 1529 1529 1529 1530 1530 1529 1529 1529
1499 1500 1501 1502 1502 1503 1505 1505 1506 1506 1507 1508 1509 1510 1511 1511 1512 1513 1514 1514 1515 1516 1516 1517 1518 1519 1519 1520 1521 1522 1523 1524 1524 1524 1525 1525 1525 1525 1525 1526 1526 1525 1525
1499 1500 1502 1502 1502 1503 1503 1504 1505 1505 1506 1507 1507 1508 1508 1508 1508 1509 1510 1510 1510 1511 1511 1512 1512 1513 1514 1515 1516 1517 1518 1519 1520 1520 1520 1521 1522 1522 1521 1521 1521 1521 1522
1499 1500 1502 1502 1502 1502 1503 1503 1503 1503 1504 1504 1505 1505 1505 1505 1505 1506 1506 1506 1506 1506 1506 1506 1507 1508 1510 1511 1512 1512 1513 1514 1515 1515 1516 1517 1517 1518 1518 1517 1517 1517 1517
1499 1500 1501 1501 1501 1501 1501 1501 1501 1501 1501 1501 1502 1502 1502 1502 1502 1502 1502 1502 1502 1502 1502 1503 1503 1504 1505 1506 1507 1508 1508 1509 1509 1511 1512 1512 1512 1513 1513 1514 1513 1513 1513
1499 1500 1501 1501 1500 1500 1499 1499 1499 1499 1499 1499 1499 1499 1499 1499 1498 1498 1498 1498 1498 1498 1498 1499 1499 1499 1500 1501 1501 1502 1503 1504 1504 1505 1506 1507 1508 1508 1509 1509 1509 1509 1509
1499 1500 1500 1500 1499 1498 1498 1497 1497 1497 1496 1496 1496 1495 1495 1495 1495 1495 1494 1494 1494 1494 1494 1494 1494 1494 1495 1496 1496 1497 1498 1498 1499 1500 1501 1502 1503 1503 1504 1505 1505 1505 1505
1499 1499 1499 1498 1498 1497 1496 1495 1495 1495 1494 1493 1493 1492 1492 1492 1492 1491 1491 1491 1491 1490 1490 1490 1490 1490 1491 1491 1491 1492 1493 1493 1494 1495 1496 1497 1498 1498 1499 1499 1500 1500 1501
1498 1498 1497 1497 1497 1496 1495 1494 1493 1492 1491 1490 1489 1489 1488 1488 1488 1488 1488 1488 1488 1487 1487 1487 1487 1486 1486 1486 1487 1487 1487 1488 1489 1490 1491 1492 1493 1494 1494 1495 1495 1496 1496
1496 1496 1496 1495 1494 1494 1493 1492 1490 1489 1488 1487 1486 1485 1485 1484 1484 1484 1484 1484 1484 1483 1483 1483 1482 1482 1482 1481 1481 1482 1482 1483 1485 1485 1486 1487 1488 1489 1489 1490 1490 1491 1492
1494 1494 1494 1493 1492 1491 1490 1489 1488 1486 1485 1483 1483 1482 1481 1480 1480 1479 1479 1479 1478 1479 1479 1478 1478 1478 1478 1477 1477 1477 1478 1479 1480 1481 1481 1482 1483 1483 1484 1485 1486 1486 1488
1492 1491 1491 1490 1489 1488 1487 1485 1484 1483 1481 1480 1479 1478 1477 1476 1475 1475 1474 1473 1474 1474 1474 1474 1474 1474 1474 1473 1473 1473 1474 1475 1476 1476 1476 1477 1478 1479 1479 1480 1481 1482 1483